Accueil
METAR-TAF:

METAR-TAF

Aéroports :

Fairford, Angleterre

latitude: 51-41N, longitude: 001-47W, altitude: 87 m

Observation

Le bulletin a été fait il y a 40 minutes, à 23:32 UTC
Vent 3 kt de est
Température 18°C
Humidité 73%
Pression 1014 hPa
Visibilité 10 km ou plus
Ciel couvert à une hauteur de 3300 ft
faible bruine

METAR: EGVA 282332Z AUTO 08003KT 9999 -DZ OVC033 18/13 A2994 RMK AO2 DZB08E19DZB32 SLP140 $

Heure: 01:12 (00:12 UTC)


TAF: absent

Observations et prévisions météorologiques de plus de 4000 aéroports (messages METAR et TAF).

Les stations disponibles sont représentées par des disques jaunes et rouges sur la carte.

Passer la souris dessus pour voir le nom de la station.

Cliquer dessus pour voir les observations et prévisions météorologiques.

Pour changer de carte: cliquez sur les boutons verts avec une croix noire pour zoomer, sur le bouton vert avec un tiret pour effectuer un zoom arrière, ou sur les flèches vertes pour les cartes adjacentes.


METAR-TAF: